GFSWCAN_700_rhum_261.txt.gz
RH
3 3 4 4 5 5 6 7 7 7 8 8 9 11 13 12 16 51 27 42 55 52 59 82 82 94 99 90 67 66 73 79 68 49 54 72 89 87 98 97 96 85 81 85 99 98 99 99 100 97 100 100 100 100
3 4 4 5 5 6 6 7 8 8 9 10 11 13 17 16 17 38 54 39 39 44 47 68 68 91 88 96 68 81 96 99 96 93 93 91 94 94 100 98 97 92 87 85 87 97 100 100 98 98 97 97 98 100
3 3 3 4 5 6 6 7 7 8 9 14 18 91 31 22 49 75 76 38 42 38 42 51 59 71 91 90 84 93 93 89 90 92 95 100 100 100 100 100 100 100 97 91 87 97 100 100 100 100 99 98 96 94
3 3 3 3 3 4 4 5 5 7 10 15 59 100 96 42 100 62 62 36 37 53 60 55 62 72 88 84 97 100 90 89 93 98 100 100 100 100 98 99 100 100 99 99 99 100 100 98 96 98 98 94 94 94
4 4 4 5 6 8 8 8 8 9 11 16 61 72 100 62 99 65 63 42 40 68 65 68 75 78 90 93 98 100 81 87 90 100 100 100 100 100 100 100 100 100 100 100 100 100 100 100 97 96 93 94 90 87
4 5 8 9 9 10 12 13 14 13 13 23 23 96 100 78 92 100 62 42 50 73 89 85 82 90 100 100 100 80 80 91 100 99 100 100 100 100 100 100 100 100 100 100 100 100 100 100 100 100 98 89 86 85
7 8 9 11 12 12 11 14 17 18 18 18 82 100 100 58 89 100 100 98 82 76 83 98 96 100 100 100 87 82 95 99 100 95 99 100 100 100 100 100 100 100 100 100 100 100 100 98 100 99 97 93 88 86
7 7 12 12 12 10 8 11 22 31 26 77 65 40 43 58 98 100 100 98 79 87 89 98 100 97 92 90 91 92 99 100 97 97 99 100 100 100 100 100 100 100 100 100 100 99 99 100 99 96 94 94 94 92
7 9 14 12 11 7 6 9 30 43 40 30 26 34 44 46 53 68 86 77 72 88 100 98 100 92 70 58 64 100 100 100 100 100 95 100 100 100 100 100 100 100 100 100 99 99 99 100 99 97 98 96 96 98
9 15 13 12 8 6 7 14 26 40 46 43 40 50 53 56 66 77 70 79 99 94 100 100 100 88 68 61 95 100 100 100 100 100 100 99 99 100 100 100 100 100 100 100 100 100 100 100 100 99 99 98 96 95
14 14 13 9 7 6 8 13 25 45 53 54 58 65 72 74 80 88 85 68 84 81 89 89 81 96 87 80 100 100 100 100 100 100 100 100 100 100 100 100 100 100 100 100 100 100 100 99 100 100 100 100 98 97
16 14 12 9 7 7 10 19 32 51 60 64 70 66 67 82 72 64 73 98 100 99 95 100 95 99 98 100 100 100 100 100 100 100 100 100 100 100 100 100 100 100 100 100 100 99 91 83 82 83 88 96 99 100
19 16 11 8 7 10 16 32 46 58 79 78 71 63 72 78 97 98 100 100 100 100 99 99 100 100 100 100 100 100 100 100 100 100 100 100 100 100 100 100 100 100 100 100 98 82 71 65 64 65 66 66 68 78
21 16 10 8 10 17 28 42 52 64 83 86 92 96 91 100 100 100 100 100 100 100 100 100 100 100 100 100 100 100 100 100 100 100 100 100 100 100 100 100 100 100 100 100 92 83 77 71 66 63 62 67 72 75
20 18 10 10 18 28 43 54 55 61 76 93 98 96 100 100 100 100 100 99 95 95 100 100 100 100 100 100 100 100 100 100 100 100 100 100 100 100 100 100 100 100 100 100 99 94 84 79 74 66 62 62 63 67
23 14 11 18 22 35 53 66 70 72 70 85 95 100 100 100 100 94 84 85 91 98 100 100 100 100 100 100 100 100 100 100 100 100 100 100 100 100 100 100 100 100 100 100 100 99 94 88 86 80 74 69 63 64
20 11 14 21 20 27 54 84 72 78 84 92 100 100 100 94 83 75 72 76 83 92 100 100 100 100 100 100 100 100 100 100 100 100 100 100 100 100 100 100 100 100 100 100 100 98 94 91 90 89 87 82 77 74
12 12 19 20 23 35 67 77 73 88 96 100 100 97 91 81 79 76 73 78 82 91 99 98 99 100 100 100 100 100 100 100 100 100 100 100 100 100 100 100 100 100 100 100 100 100 100 100 100 100 100 99 94 89
10 15 21 22 25 26 68 69 81 88 99 96 98 97 90 82 74 67 62 61 72 84 87 94 97 97 100 100 100 100 100 100 100 100 100 100 100 100 100 100 100 100 99 98 96 98 99 99 100 100 99 100 98 96
13 25 23 24 28 29 55 75 86 93 100 100 100 96 85 81 78 71 64 58 73 76 89 96 100 100 100 100 100 100 100 100 100 100 100 100 100 100 100 100 100 100 93 86 82 80 80 78 78 78 76 76 76 79
20 29 27 29 30 32 50 86 90 97 100 99 97 90 89 91 80 68 63 72 63 78 100 100 100 100 100 100 100 100 100 100 100 100 100 100 100 100 100 99 94 88 84 81 79 78 77 76 76 76 76 75 74 73
25 28 32 32 33 49 64 76 92 94 99 100 100 99 96 93 76 71 74 68 83 99 97 100 100 100 100 100 100 100 100 100 100 100 100 100 99 97 94 89 87 85 83 84 86 85 82 79 79 78 75 73 71 68
33 36 36 34 47 60 73 81 92 88 100 98 96 96 96 88 83 86 85 88 98 98 98 96 95 97 99 98 97 97 98 97 96 96 95 90 88 90 92 90 89 91 93 89 88 87 88 88 87 85 85 87 82 77
38 40 43 43 55 64 64 62 67 83 88 84 84 86 83 80 80 95 92 91 93 95 94 95 97 96 90 93 94 97 99 100 96 90 95 95 97 94 94 95 93 91 91 93 96 98 97 94 89 87 86 86 85 82
43 47 53 54 55 57 65 68 65 70 76 73 76 77 76 74 79 94 98 100 100 100 99 95 92 95 100 100 97 96 96 98 100 100 98 97 98 100 100 94 93 95 94 94 96 98 100 99 98 95 94 87 86 91
52 58 57 57 55 56 54 62 64 66 69 72 75 74 71 76 84 96 99 99 97 100 100 100 100 100 98 98 100 100 100 100 100 100 100 100 100 99 99 99 100 100 100 100 100 100 100 100 100 100 100 94 89 90
65 70 68 65 59 53 58 63 64 65 71 76 72 74 77 82 88 97 96 95 95 98 100 100 100 100 100 100 100 99 100 100 100 100 100 99 100 100 100 100 100 100 100 100 100 100 100 100 100 100 100 100 95 94
68 74 77 73 74 64 58 59 68 76 77 76 80 80 91 93 99 98 95 98 100 100 100 99 100 98 97 99 100 100 100 100 100 100 98 94 92 94 95 96 99 99 100 98 96 97 98 98 98 100 100 100 100 100
72 74 76 78 79 78 72 68 78 82 86 84 85 89 96 95 99 98 98 99 100 100 100 100 100 100 100 100 98 94 99 100 100 100 100 100 100 100 100 100 100 100 100 100 100 100 100 100 97 99 100 100 100 99
74 75 77 76 78 85 79 81 77 78 81 85 89 90 93 94 98 100 100 100 100 100 100 100 100 100 100 100 100 100 95 96 94 98 100 100 100 100 100 100 100 100 100 100 100 100 100 100 100 100 100 100 100 100
76 80 78 79 75 78 82 78 73 74 79 81 83 85 88 90 94 100 100 100 100 100 100 100 100 99 100 100 100 100 100 100 100 100 100 100 100 100 100 100 100 100 100 100 100 100 100 100 100 100 100 100 100 100
76 82 80 78 76 66 72 69 63 66 72 77 77 77 81 87 90 97 99 100 100 100 100 100 100 100 100 100 100 99 100 99 100 100 100 99 96 99 100 100 100 100 100 100 100 100 100 100 100 100 100 100 100 100
79 83 79 76 67 60 56 59 57 58 64 69 73 75 80 89 97 99 97 98 100 99 94 91 91 93 98 100 100 100 100 100 100 100 100 100 100 100 100 100 100 100 100 100 100 100 100 100 100 100 100 100 100 100

GFSWCAN_700_rhum_264.txt.gz
RH
2 2 2 2 3 3 3 4 4 4 6 8 17 100 100 100 96 88 97 85 89 51 38 61 76 82 95 98 91 64 62 77 79 65 71 89 99 99 99 94 88 94 84 86 100 99 94 98 100 100 99 100 100 100
2 2 2 3 3 4 5 7 8 8 8 9 81 100 100 100 98 73 100 95 96 59 45 49 51 70 99 99 97 78 90 91 90 88 95 88 100 95 92 90 93 99 95 88 84 99 100 100 99 99 99 98 100 99
2 3 3 4 6 8 9 10 11 11 13 14 83 98 91 100 98 97 100 97 68 54 39 50 53 62 69 95 100 88 96 94 88 91 90 96 98 97 100 98 99 99 100 96 85 98 98 100 100 99 99 98 97 98
4 4 5 7 8 9 11 11 10 12 16 26 29 99 95 98 100 99 99 95 78 55 52 70 64 75 92 100 97 100 100 97 87 94 100 100 100 99 99 100 100 99 99 100 100 100 100 99 100 100 98 96 96 91
5 6 7 9 10 11 11 11 8 12 100 82 35 99 67 96 100 100 85 100 73 61 78 70 72 86 100 100 100 100 100 95 90 96 100 100 100 100 99 100 100 100 100 100 100 100 100 98 97 99 98 96 94 90
5 5 5 7 12 12 12 9 7 8 29 34 31 92 100 100 100 100 89 98 72 65 100 82 86 99 100 100 100 100 93 94 100 100 100 100 100 100 100 100 100 100 100 100 100 100 100 100 97 96 96 94 91 88
5 5 7 11 14 13 10 8 7 9 18 39 95 95 87 85 76 63 94 100 99 100 82 97 99 100 100 100 100 94 97 100 100 100 100 100 100 100 100 100 100 100 100 100 100 100 100 100 98 96 94 92 92 89
5 6 12 14 14 12 10 7 7 9 16 44 50 37 39 74 69 97 100 100 99 88 94 100 100 100 100 100 96 78 95 100 100 100 100 100 100 100 100 100 100 100 100 100 100 100 100 97 93 94 95 96 94 92
6 10 15 15 15 13 10 8 7 12 21 51 53 49 50 52 60 70 76 82 82 90 100 99 100 100 93 87 75 82 100 100 100 100 100 100 100 100 100 100 100 100 100 100 100 100 99 100 98 96 97 95 95 95
8 15 18 18 18 15 8 8 11 20 36 51 58 64 60 67 79 89 88 99 100 97 100 100 100 100 97 100 94 100 100 100 100 100 100 100 100 100 100 100 100 100 100 100 100 99 100 98 98 98 97 96 96 96
10 17 20 20 20 9 8 11 19 33 51 65 70 75 80 85 89 96 88 74 96 97 99 96 97 99 99 100 100 100 100 100 100 100 100 100 100 100 100 100 100 100 100 100 100 100 100 99 99 99 99 97 96 95
15 20 21 23 18 8 11 18 29 44 61 75 73 66 76 81 72 73 94 100 100 100 100 99 95 100 100 100 100 100 100 100 100 100 100 100 100 100 100 100 100 100 100 100 100 100 93 79 69 64 63 65 69 78
20 23 25 24 11 11 18 28 40 44 66 80 74 85 91 93 97 97 97 100 100 100 99 97 100 100 100 100 100 100 100 100 100 100 100 100 100 100 100 100 100 100 100 100 100 97 84 74 69 64 60 58 62 66
22 25 26 14 11 17 22 40 54 56 73 85 90 91 88 100 99 100 100 100 100 97 100 100 100 100 100 100 100 100 100 100 100 100 100 100 100 100 100 100 100 100 100 100 100 99 95 86 76 66 61 60 61 65
26 27 16 11 17 19 25 57 68 72 67 81 92 92 100 100 100 97 91 85 91 95 100 100 100 100 100 100 100 100 100 100 100 100 100 100 100 100 100 100 100 100 100 100 100 100 100 97 89 80 71 64 62 62
27 14 10 17 20 23 31 62 70 82 74 78 95 100 100 97 90 82 77 82 86 91 99 100 100 100 100 100 100 100 100 100 100 100 100 100 100 100 100 100 100 100 100 100 100 100 100 100 96 89 85 80 74 71
13 10 16 21 23 25 28 52 66 65 79 90 100 94 87 79 75 71 70 75 81 89 100 100 100 100 100 100 99 99 100 100 100 100 100 100 100 100 100 100 100 100 100 100 100 100 100 100 100 99 95 90 86 81
10 13 22 22 28 26 43 39 63 80 91 99 92 88 81 73 64 60 58 56 69 85 94 93 96 99 98 99 100 100 100 100 100 100 100 100 100 100 100 100 100 100 100 100 100 100 100 100 100 100 100 100 98 98
11 19 25 25 29 28 43 62 74 82 96 93 98 94 80 75 68 58 56 56 67 83 92 94 95 95 100 100 100 100 100 100 100 100 100 100 100 100 100 100 100 100 100 97 94 92 91 90 88 87 88 89 89 90
19 24 27 31 30 32 54 80 76 88 98 96 88 85 88 82 70 69 66 68 77 81 94 96 99 100 100 100 100 100 100 100 100 100 100 100 100 100 100 100 100 99 94 88 84 81 78 76 76 74 72 72 72 71
27 31 34 34 32 31 52 76 82 94 97 97 99 93 94 77 70 67 67 71 59 72 92 99 100 100 100 100 100 100 100 100 100 100 100 100 100 100 98 95 91 88 86 84 82 80 78 77 75 74 72 70 68 65
33 37 37 30 33 44 57 65 79 86 90 94 94 88 79 72 68 68 72 64 81 99 99 100 100 100 100 100 100 100 100 99 99 96 93 93 96 97 95 93 94 91 89 90 92 91 90 88 86 85 85 83 77 71
37 40 34 29 46 52 61 67 70 72 87 86 79 78 71 76 80 81 84 86 94 97 95 92 91 93 95 98 98 97 99 100 100 100 99 96 93 96 99 97 97 97 97 93 93 93 92 91 90 89 91 91 85 82
42 35 34 41 50 57 55 58 65 72 74 68 69 71 70 80 84 95 95 96 98 100 100 100 100 99 99 100 100 100 100 100 99 99 100 100 100 98 100 100 100 100 100 100 100 100 100 97 93 92 91 90 90 88
41 37 45 48 49 52 59 61 62 68 66 66 62 68 74 76 86 98 100 100 100 100 100 100 99 100 100 100 100 99 100 100 100 100 100 100 100 100 100 98 100 99 100 99 100 100 100 100 100 97 96 92 90 92
41 47 51 53 50 53 54 60 65 64 63 63 67 67 70 79 92 100 100 100 100 100 100 100 100 100 100 99 100 100 100 100 100 100 100 100 100 100 100 100 100 100 100 100 100 100 100 100 100 100 100 99 93 92
54 63 63 60 52 52 60 65 62 60 66 69 68 70 79 87 98 100 100 100 100 100 100 100 100 100 100 100 100 100 100 100 99 96 94 95 98 98 99 99 98 100 100 100 100 100 100 100 100 100 100 100 100 99
63 73 73 70 66 58 57 60 65 71 71 73 77 82 96 99 100 100 100 100 100 100 100 99 96 99 100 98 100 100 100 100 99 95 92 89 94 96 97 100 100 100 100 97 95 99 100 97 100 100 100 100 100 100
72 71 69 72 75 65 63 68 75 81 82 81 85 90 100 100 100 100 100 100 100 100 100 100 100 100 100 97 91 93 96 100 100 100 100 100 100 100 100 100 100 100 100 100 100 100 100 99 98 100 100 100 100 100
75 72 72 69 73 73 68 73 76 78 81 84 86 88 94 98 100 100 100 100 100 100 100 100 100 100 100 100 100 99 98 98 98 100 100 100 100 100 100 100 100 100 100 100 100 100 100 100 100 100 100 100 100 100
79 79 76 70 67 72 69 67 72 77 80 78 80 84 91 98 100 100 100 100 100 100 100 100 100 100 100 99 100 100 100 100 100 98 98 99 100 100 100 99 100 100 100 100 100 100 100 100 100 100 100 100 100 100
80 82 77 71 64 63 61 61 66 71 74 76 77 83 92 97 99 100 100 100 100 100 96 98 100 100 100 99 98 99 99 99 100 100 100 98 97 100 100 100 100 100 100 100 100 100 100 100 100 100 100 100 100 100
83 83 72 63 56 55 54 56 58 64 69 75 82 88 90 89 88 90 91 90 88 90 87 87 90 95 99 100 100 100 100 100 100 100 100 100 100 100 100 100 100 100 100 100 100 100 100 100 100 100 100 100 100 100

GFSWCAN_700_rhum_270.txt.gz
RH
12 11 7 5 4 4 5 7 8 10 11 13 12 12 23 100 98 88 94 98 99 98 84 74 75 72 68 84 91 93 91 89 85 84 88 90 80 85 89 94 89 78 81 92 75 96 100 98 100 99 98 95 96 95
17 18 19 17 9 5 5 6 8 12 14 15 14 10 41 100 99 90 85 90 100 97 92 86 92 70 58 60 70 94 97 76 84 71 97 83 93 95 85 83 93 92 97 96 95 94 100 100 96 99 100 100 100 99
21 18 18 20 17 7 6 9 13 14 14 14 11 10 12 66 95 79 92 100 99 100 91 82 88 96 79 64 99 98 84 92 92 88 74 88 96 90 99 97 93 86 95 99 95 94 100 100 100 100 100 100 100 100
25 24 20 17 17 8 9 13 14 17 18 13 11 10 26 47 87 91 99 93 84 100 95 86 72 74 65 72 76 87 96 90 89 90 85 94 97 94 97 95 100 100 98 99 100 100 100 99 100 100 99 97 96 92
28 27 25 16 14 9 13 16 17 18 20 14 10 20 57 97 88 95 80 98 99 94 96 100 90 77 86 94 100 100 96 97 99 99 98 95 96 99 95 97 100 100 100 100 96 100 99 98 100 96 93 92 88 87
45 41 25 14 12 11 14 15 18 20 19 9 12 20 35 43 48 60 78 98 100 86 100 96 99 86 94 96 100 95 97 99 99 97 98 98 100 100 100 98 98 100 100 100 100 100 100 99 98 94 89 86 86 84
36 24 15 13 12 14 16 18 20 18 8 14 20 29 49 67 86 95 98 97 92 100 100 100 100 100 96 97 100 100 99 95 97 98 99 100 100 100 100 100 100 100 100 100 100 100 100 98 94 90 86 82 82 82
51 27 14 13 14 16 17 22 16 8 13 19 29 44 74 72 70 77 96 100 100 94 91 97 100 98 95 100 100 97 96 94 91 100 100 100 100 100 100 99 100 100 100 100 100 100 100 98 96 95 92 89 86 82
60 24 14 15 16 20 22 10 8 14 19 23 36 54 67 64 86 98 100 96 93 92 99 100 100 100 99 98 99 98 99 99 100 100 100 100 100 100 100 100 100 100 100 100 100 100 100 100 99 97 97 93 89 87
33 15 15 17 22 20 7 8 15 20 22 27 44 62 76 86 92 93 89 90 99 100 100 100 100 97 92 95 100 98 100 100 100 100 100 100 100 100 100 100 100 100 100 100 100 100 100 99 96 95 93 92 92 91
18 16 18 23 18 7 8 15 21 23 25 38 54 66 78 86 87 81 81 95 99 100 100 99 90 90 94 99 99 100 100 100 100 100 100 100 100 100 100 100 100 100 100 99 98 98 98 97 95 87 76 68 64 64
16 18 24 17 7 8 15 21 24 26 31 54 66 71 75 79 89 95 97 100 100 100 96 94 90 93 98 100 100 100 100 100 100 100 100 100 100 100 100 100 99 98 98 98 98 98 98 96 89 79 70 65 62 61
17 24 19 7 8 14 20 24 25 34 53 72 82 86 91 85 75 82 93 100 99 99 96 94 96 99 100 100 100 100 100 100 100 100 100 100 100 100 100 100 98 96 96 96 98 99 98 98 95 89 77 66 61 61
24 22 8 9 13 18 25 26 24 36 59 80 82 71 73 89 94 95 91 89 89 86 91 97 100 100 100 100 100 100 100 100 100 100 100 100 100 100 100 99 98 97 96 97 98 98 98 98 98 98 93 83 72 67
21 8 9 14 18 24 27 23 25 38 63 66 74 81 91 91 79 75 76 80 80 90 93 100 100 100 100 100 100 100 100 100 100 100 100 100 100 100 100 100 100 98 98 98 99 99 98 99 99 100 100 99 91 85
8 9 14 19 26 30 24 24 30 48 51 63 75 74 75 70 66 63 61 60 65 80 98 100 100 100 100 100 100 100 100 100 100 100 100 100 100 100 100 100 100 99 99 100 100 99 98 98 99 98 98 98 98 95
8 15 22 28 31 27 22 30 40 36 59 76 81 73 63 53 52 53 53 57 64 83 95 100 100 100 100 99 100 100 100 100 100 100 100 100 100 100 100 100 100 100 100 100 100 99 100 100 99 99 99 98 97 97
14 21 30 33 29 23 34 32 35 59 73 76 64 52 51 52 55 60 65 75 87 94 90 89 97 98 100 100 100 100 100 100 100 100 100 100 100 100 100 100 100 100 100 100 98 97 96 95 94 94 93 92 90 89
20 28 33 33 20 26 34 44 48 63 80 68 56 54 52 53 54 56 63 74 91 93 86 90 91 96 100 100 100 100 100 100 100 100 99 99 99 99 98 96 95 95 94 93 90 86 82 80 77 75 74 72 70 70
26 33 36 21 20 29 42 56 51 64 71 65 60 57 60 59 62 61 59 63 71 66 73 88 98 100 100 100 100 100 100 100 99 98 97 96 93 92 90 88 86 83 82 80 80 78 77 80 78 76 74 70 64 64
34 38 31 24 27 24 37 52 63 69 65 63 63 60 66 74 74 73 68 65 58 72 92 97 99 100 100 99 99 100 100 98 98 96 95 94 94 94 92 92 92 90 90 89 88 87 85 84 83 82 81 82 79 76
38 38 30 26 26 32 46 53 52 53 62 63 68 71 75 74 74 78 79 71 87 100 100 100 100 100 100 100 100 100 100 100 100 99 98 99 100 100 98 96 96 95 93 93 92 92 93 91 90 90 90 89 87 85
40 33 27 24 31 42 54 52 52 50 56 64 68 72 77 79 83 84 91 93 100 100 100 100 100 100 100 100 100 100 100 100 100 100 99 98 97 99 100 98 96 96 97 96 95 95 97 97 95 95 94 95 94 93
37 26 30 31 39 47 50 50 46 48 52 57 64 71 78 84 83 94 96 97 100 100 100 100 100 100 100 100 100 100 100 100 100 100 100 100 99 98 99 100 100 98 98 99 100 100 99 98 98 100 99 97 97 94
30 32 36 37 44 47 49 48 46 50 55 60 65 73 80 81 89 98 100 100 100 100 100 100 100 99 99 100 100 100 99 100 100 100 100 100 100 100 99 97 97 94 98 100 100 100 100 98 98 97 95 93 94 97
29 37 39 42 46 47 48 49 53 56 58 61 66 73 78 86 94 100 100 100 100 100 100 100 100 100 100 98 99 100 100 100 100 100 100 100 100 100 100 100 100 100 100 99 98 100 100 100 100 100 100 100 100 100
41 47 43 44 47 48 51 56 57 57 60 67 71 77 85 91 99 100 100 100 100 100 100 100 100 100 100 100 100 100 98 95 95 97 100 100 100 100 99 98 99 100 100 100 100 100 100 100 100 100 100 100 100 100
49 60 48 50 50 53 52 53 56 63 69 74 80 82 94 98 100 100 100 100 100 100 100 100 98 96 98 100 100 100 100 100 100 97 94 96 97 100 100 100 100 100 100 100 99 100 100 100 100 100 100 100 100 100
57 58 54 53 55 54 57 60 68 72 76 80 84 90 99 99 100 100 100 100 100 100 100 100 100 100 97 95 98 100 100 100 100 100 100 100 100 100 100 100 100 100 100 100 100 100 100 100 100 100 100 100 100 100
60 57 52 51 53 57 62 66 70 73 77 82 86 90 94 98 99 99 98 100 100 97 96 99 100 100 100 100 99 98 100 100 100 100 100 100 100 100 100 100 100 100 100 100 100 100 100 100 100 100 100 100 100 100
64 56 53 52 54 61 65 67 70 73 80 84 87 89 91 91 86 84 84 93 100 100 100 100 100 100 100 100 100 100 100 100 100 100 100 100 100 100 100 100 100 100 100 100 100 100 100 100 100 100 100 100 100 100
65 57 53 50 54 59 63 67 73 80 82 82 81 82 82 77 72 72 82 92 100 100 100 100 100 100 100 100 100 100 100 100 100 100 100 98 94 99 100 100 100 100 100 100 100 100 100 100 100 100 100 100 100 100
63 54 49 48 51 57 63 70 78 81 79 76 74 72 67 64 65 65 74 83 87 89 89 91 94 98 100 100 100 100 100 100 100 100 100 100 100 100 100 100 100 100 100 100 100 100 100 100 100 100 100 100 100 100

GFSWCAN_700_rhum_273.txt.gz
RH
26 26 25 24 23 21 19 16 8 8 12 13 15 17 15 11 25 97 100 100 98 82 98 98 89 95 85 80 80 57 85 99 69 76 94 94 99 98 95 93 93 86 78 84 82 100 99 90 100 99 91 93 97 99
36 35 31 30 32 28 18 14 9 11 13 16 17 19 18 12 14 87 89 100 98 87 99 98 94 76 84 70 67 73 89 91 87 83 85 85 83 96 96 93 88 95 95 94 94 96 100 100 99 100 100 98 100 100
41 39 39 41 41 25 15 12 10 13 15 16 18 20 18 27 70 90 83 96 91 99 100 98 92 74 61 71 66 100 100 93 95 94 83 82 92 96 93 95 93 85 87 97 92 94 100 100 100 100 100 100 100 98
46 43 39 36 27 17 13 12 13 15 15 16 20 16 13 36 96 82 89 92 89 95 98 97 79 67 85 72 63 70 94 98 97 89 88 89 100 98 99 97 96 99 98 98 100 100 99 100 100 99 100 100 99 94
42 44 45 43 30 16 13 13 14 14 19 19 8 11 18 21 29 42 61 76 99 100 96 99 100 100 91 88 86 96 99 100 98 99 99 98 97 100 96 100 100 99 100 100 100 100 100 100 100 99 96 93 91 90
41 45 51 53 24 14 13 14 18 21 8 8 13 18 22 53 74 70 83 89 100 96 100 100 100 100 100 90 96 100 100 100 100 100 100 98 100 100 99 96 95 98 100 100 100 100 100 100 100 100 97 93 88 85
46 48 52 30 16 14 15 21 14 6 8 16 19 23 27 47 63 87 99 100 97 100 100 99 100 100 92 88 98 100 100 100 97 93 90 100 100 100 100 100 98 100 100 100 100 100 100 100 100 100 100 94 88 84
52 55 42 19 14 17 21 9 6 9 17 20 20 28 59 66 68 77 96 100 100 100 100 100 100 100 96 100 100 97 94 95 94 100 100 100 100 100 100 100 100 100 100 100 100 100 100 100 100 99 96 94 93 92
61 56 27 15 19 21 8 6 10 18 21 20 26 62 83 76 82 97 97 97 97 99 100 100 100 100 100 99 100 99 97 96 99 100 100 100 100 100 100 100 100 100 100 100 100 100 100 100 100 99 95 93 92 92
64 36 15 20 21 8 6 10 17 22 22 23 41 59 76 80 89 97 99 94 100 100 100 100 100 98 89 94 100 100 100 100 100 100 100 100 100 100 100 100 100 100 100 100 100 100 100 98 98 95 91 88 83 78
66 29 20 22 8 7 10 16 23 24 23 38 55 66 78 77 79 74 88 93 99 100 100 99 92 88 94 98 100 100 100 100 100 100 100 100 100 100 100 100 100 100 100 100 100 100 100 99 98 94 82 72 65 61
58 20 22 8 8 11 17 23 25 21 27 50 71 84 87 91 94 89 92 99 97 100 94 88 88 92 100 100 100 100 100 100 100 100 100 100 100 100 100 100 100 100 100 100 100 100 99 98 96 91 82 73 65 60
27 21 9 8 12 17 24 27 22 23 41 68 84 77 88 79 70 78 84 91 84 86 90 81 90 100 100 100 100 100 100 100 100 100 100 100 100 100 100 100 100 100 100 100 100 100 100 100 100 100 95 85 73 64
21 12 8 13 19 24 29 24 21 30 54 73 77 66 66 82 84 84 82 88 87 86 92 100 100 99 100 100 100 100 100 100 100 98 100 100 100 100 100 100 100 100 100 100 100 100 100 100 100 100 100 100 96 85
16 8 12 21 26 30 26 20 24 31 49 52 64 71 78 78 78 70 66 64 68 75 94 100 100 100 100 100 100 100 100 100 100 100 100 100 100 100 100 100 100 100 100 100 100 100 100 100 100 100 100 100 100 99
9 10 17 25 30 29 20 23 29 40 38 56 67 64 61 60 55 53 54 58 63 72 97 98 100 100 99 99 100 100 99 100 100 100 100 100 100 100 100 100 100 100 100 100 100 100 100 100 100 100 100 100 100 100
9 16 25 31 31 17 20 27 34 28 54 58 58 52 55 56 60 62 66 74 83 95 96 100 98 100 100 97 99 99 100 100 100 100 100 100 100 100 100 100 100 100 100 100 100 100 100 100 100 100 100 100 100 100
14 24 32 32 19 23 29 25 24 44 48 54 48 51 52 50 56 64 77 91 96 91 82 82 94 93 97 98 100 100 100 100 100 100 100 100 100 100 100 100 100 100 99 99 98 96 93 89 86 83 80 78 77 76
22 31 31 19 18 24 27 33 29 45 53 53 58 57 54 54 54 54 57 70 79 74 74 84 89 95 100 100 100 100 100 100 100 100 100 100 99 99 97 93 90 90 88 87 85 83 82 80 76 74 72 68 65 66
28 33 25 18 19 24 33 41 34 46 52 59 64 65 63 67 72 69 63 61 60 57 70 88 99 100 100 100 100 100 100 100 100 100 100 95 94 94 91 90 91 91 92 91 89 86 86 88 85 82 80 77 72 70
35 33 21 23 23 21 29 43 42 49 60 65 64 67 80 88 83 77 74 72 60 80 100 100 100 100 100 100 100 100 100 100 100 100 99 100 99 96 97 100 100 98 98 98 98 97 94 92 92 90 89 89 87 85
36 27 25 26 25 27 37 38 44 50 62 68 74 78 80 78 78 80 85 77 93 100 100 100 100 100 100 100 100 100 100 100 100 100 100 100 100 100 100 100 100 100 98 98 98 98 99 97 97 96 94 93 92 91
32 26 24 23 30 40 45 44 44 51 63 69 72 76 81 83 88 89 96 99 100 100 100 100 100 100 100 100 100 100 100 100 100 100 100 100 99 100 100 100 99 100 100 100 99 99 100 99 98 97 96 98 95 94
30 24 27 31 36 41 43 41 44 50 57 60 69 77 82 89 90 99 100 100 100 100 100 100 100 100 100 100 100 100 100 100 100 99 100 100 100 100 100 100 99 96 96 97 99 100 98 99 98 99 99 98 100 99
29 30 34 38 41 40 41 42 46 54 59 62 68 76 84 86 91 98 100 100 100 100 100 100 100 95 98 100 100 100 99 100 100 99 99 98 100 100 100 100 98 94 98 100 100 100 99 97 98 99 99 98 98 99
26 33 36 40 42 42 44 50 55 58 60 66 74 80 82 88 97 100 100 100 100 100 100 100 100 100 100 98 98 99 100 100 100 100 100 100 99 100 100 100 100 100 100 98 98 100 100 100 100 100 100 100 100 100
36 44 44 42 43 45 49 54 56 62 67 73 74 76 87 94 100 100 100 100 100 100 100 100 100 100 100 100 100 100 100 98 98 98 99 99 98 99 97 98 99 100 99 98 99 98 100 100 100 100 100 100 100 100
44 54 47 48 47 50 51 52 61 71 74 75 79 85 98 100 100 100 100 100 100 100 100 100 97 95 97 100 100 100 100 99 96 96 95 96 97 100 100 100 100 99 100 100 99 99 100 100 100 100 100 100 100 100
50 49 52 53 52 52 58 63 73 76 78 81 84 89 100 98 98 99 100 100 100 100 100 100 100 100 100 97 99 100 100 100 100 100 100 100 100 100 100 100 100 100 100 100 100 100 100 99 100 100 100 100 100 100
52 50 50 54 49 57 63 69 73 76 80 84 87 87 87 84 86 93 100 100 100 100 95 98 100 100 100 100 100 99 100 100 100 100 99 100 99 100 100 100 100 100 100 100 100 100 100 100 100 100 100 100 100 100
47 49 51 53 55 62 66 70 75 78 80 80 80 78 75 73 76 90 96 98 98 100 100 100 100 100 100 100 100 100 100 100 100 100 100 100 100 100 97 100 100 100 100 100 100 100 100 100 100 100 100 100 100 100
48 49 51 52 57 62 68 75 76 75 74 74 71 67 66 68 68 72 73 76 85 94 98 100 100 100 100 100 100 100 100 100 100 100 100 100 100 100 100 100 100 100 100 100 100 100 100 100 100 100 100 100 100 100
46 46 47 53 58 64 70 73 71 70 68 66 63 60 58 59 65 67 70 76 84 87 89 92 96 100 100 100 100 100 100 100 100 100 100 100 100 98 96 96 92 91 91 92 91 92 95 97 99 100 100 100 100 100

GFSWCAN_700_rhum_276.txt.gz
RH
34 36 37 38 36 36 38 29 18 14 13 13 15 17 19 21 26 57 78 95 99 99 95 86 93 99 81 80 60 54 65 61 94 78 96 97 91 93 93 82 85 75 72 78 85 100 99 95 100 96 93 100 100 100
27 32 34 38 40 41 36 20 17 15 13 15 16 17 22 54 64 95 97 95 98 93 100 95 98 97 91 68 82 64 66 96 91 80 88 86 87 85 90 89 85 96 93 85 85 99 99 98 99 98 95 99 100 100
18 30 32 36 42 47 45 25 16 13 14 16 20 15 20 39 29 79 87 100 99 97 99 100 99 96 71 71 65 61 100 100 97 90 95 88 77 89 93 98 96 90 88 93 93 90 98 100 100 100 100 98 99 100
17 28 32 37 42 46 32 18 14 15 20 15 7 8 11 16 18 36 44 73 92 93 100 100 100 100 77 74 73 66 80 97 97 98 96 100 100 95 94 94 92 97 98 98 97 95 100 100 100 100 100 100 100 96
20 29 37 44 46 37 21 14 17 19 9 5 6 10 16 18 26 43 54 53 78 100 99 99 98 100 92 81 82 83 98 100 100 100 100 100 100 100 99 100 100 100 100 100 100 100 100 100 99 99 100 100 100 98
21 38 46 50 45 19 14 18 16 5 5 7 14 17 17 21 37 58 84 94 100 94 99 100 100 100 96 87 78 98 100 100 100 100 100 100 100 100 99 100 99 100 100 100 100 100 100 100 100 99 98 96 95 91
33 48 53 47 20 15 19 13 5 6 8 16 19 18 20 32 50 62 89 100 100 100 100 100 99 100 99 91 90 98 100 100 100 100 100 100 100 100 100 100 100 100 100 100 100 100 100 100 100 100 100 99 93 87
47 53 60 47 19 19 10 6 6 10 18 21 19 23 61 70 73 94 100 100 100 100 100 100 100 100 100 100 99 100 97 98 99 100 100 100 100 100 100 100 100 100 100 100 100 100 100 100 100 100 100 100 98 88
51 59 58 29 19 10 6 8 13 20 22 20 23 40 62 81 89 95 100 100 97 100 100 100 100 100 100 100 100 98 98 97 98 100 100 100 100 100 100 100 100 100 100 100 100 100 100 100 100 100 100 100 100 95
59 65 39 20 13 7 9 14 21 23 22 21 33 56 70 78 84 89 90 95 97 98 99 100 100 100 93 98 100 100 100 100 100 100 100 100 100 100 100 100 100 100 100 100 100 100 100 100 100 100 100 98 88 74
67 63 22 16 8 9 14 20 24 21 18 30 56 71 79 79 78 80 88 86 98 99 97 94 95 96 98 100 100 100 100 100 100 100 100 100 100 100 100 100 100 100 100 100 100 100 100 100 100 100 98 88 75 67
71 37 17 9 10 15 21 24 20 15 22 40 65 89 98 92 90 79 84 90 91 96 87 80 86 92 100 100 100 100 100 100 100 100 100 100 100 100 100 100 100 100 100 100 100 100 100 100 100 100 99 92 79 70
65 20 11 10 15 22 25 21 14 20 33 57 77 70 84 70 59 63 70 81 81 79 83 82 96 100 100 100 100 100 100 100 100 100 100 100 100 100 100 100 100 100 100 100 100 100 100 100 100 100 100 100 97 84
31 16 10 14 20 26 21 14 19 26 36 56 67 52 52 67 71 74 70 68 71 68 89 100 100 100 100 100 100 100 100 100 98 97 100 100 100 100 100 100 100 100 100 100 100 100 100 100 100 100 100 100 100 100
19 11 14 21 27 21 14 18 20 25 31 39 48 48 54 57 63 65 61 59 64 73 99 100 100 100 100 100 100 100 99 100 100 100 100 100 100 100 100 100 100 100 100 100 100 100 100 100 100 100 100 100 100 99
14 12 20 26 23 16 18 19 27 34 18 30 45 52 54 61 69 72 77 79 78 93 100 100 100 100 98 99 99 100 98 100 100 100 100 100 100 100 100 100 100 100 100 100 100 100 100 100 100 100 100 100 100 100
12 20 27 25 15 16 19 21 25 16 31 46 56 53 56 56 68 83 90 93 89 88 100 100 95 98 100 93 99 99 100 100 100 100 100 100 100 100 100 100 100 100 100 99 99 99 99 98 98 98 97 95 95 95
19 27 28 17 19 27 22 17 17 34 49 55 56 58 55 53 56 64 79 74 83 80 69 77 85 88 93 97 100 100 100 100 100 100 100 100 100 100 99 100 100 99 97 96 94 92 89 86 82 79 76 74 72 70
26 30 20 17 20 24 21 24 26 46 61 64 69 67 64 66 66 62 57 59 61 66 65 79 86 95 100 100 100 100 100 100 100 100 99 100 99 98 96 95 91 90 88 88 88 86 86 84 81 81 80 77 74 73
30 26 18 18 20 22 24 35 35 50 63 74 79 77 75 80 86 83 77 73 65 59 75 93 100 100 100 100 100 100 100 100 100 100 100 99 100 100 100 100 100 100 100 100 96 95 95 95 93 90 88 85 79 79
33 22 19 25 20 19 26 36 48 58 73 77 79 83 92 96 88 80 75 71 61 78 99 100 100 100 100 100 100 100 100 100 100 100 100 100 100 100 100 100 99 97 100 100 100 100 96 95 97 97 97 96 92 90
28 22 26 28 21 26 35 41 49 60 76 82 85 86 87 84 82 82 83 76 88 100 100 100 100 100 100 100 100 100 100 100 100 100 100 100 100 100 100 100 100 100 100 99 100 100 99 98 98 98 96 94 92 93
25 24 24 24 27 35 45 48 53 59 74 79 80 84 89 90 93 90 96 99 100 100 100 100 100 100 100 100 100 100 100 100 100 100 100 100 98 100 100 98 99 100 100 100 99 100 99 98 97 96 95 98 97 96
25 23 28 29 33 38 43 47 51 57 65 72 80 87 89 95 91 98 100 100 100 100 100 100 100 100 100 100 100 100 100 100 100 100 100 100 100 100 100 100 95 95 97 100 100 100 100 100 100 100 100 100 100 99
30 29 33 35 38 42 44 48 51 58 64 71 75 82 86 86 93 100 100 100 100 100 100 100 100 99 100 100 100 100 100 100 100 100 100 100 100 100 100 100 100 99 100 100 100 100 100 100 100 100 100 100 99 96
27 34 36 39 42 44 48 54 60 65 66 73 80 78 82 88 96 100 100 100 100 100 100 100 100 100 100 100 99 99 100 100 100 100 100 100 100 100 100 100 100 100 100 100 100 100 100 100 100 100 100 100 100 100
39 43 40 39 42 45 56 62 61 64 68 74 72 78 89 96 100 100 100 100 100 100 100 100 100 100 100 100 100 98 96 96 97 95 94 91 93 97 100 100 100 100 98 99 100 100 100 100 100 100 100 100 100 100
43 51 43 46 47 52 55 57 62 72 74 74 79 89 100 100 100 100 100 100 100 100 98 97 97 97 98 100 100 100 100 100 94 94 96 94 95 100 100 100 100 100 100 100 100 98 98 100 100 100 100 100 100 100
47 48 48 51 54 56 60 63 71 77 80 81 81 85 91 97 100 100 100 100 100 100 100 100 100 100 100 98 100 100 100 100 100 100 100 100 100 100 100 100 100 100 100 100 100 100 100 99 98 99 100 100 100 100
47 48 49 53 51 59 65 72 76 78 80 78 76 75 79 91 98 99 98 100 100 97 90 97 100 100 100 100 100 100 100 100 97 94 92 94 98 100 100 98 96 98 100 100 100 100 100 100 100 100 100 100 100 100
45 49 52 53 58 65 70 73 74 75 74 70 67 69 72 75 76 77 87 95 97 100 100 100 100 100 100 100 100 100 100 98 97 99 100 100 98 94 93 94 97 99 98 99 98 99 100 100 100 100 100 100 100 100
48 52 54 56 63 69 72 71 70 67 64 62 61 61 68 73 75 86 92 98 100 100 100 100 100 100 100 98 98 96 86 81 78 68 58 57 59 62 61 61 61 62 62 62 61 61 62 69 79 90 100 100 100 100
44 49 54 59 64 68 69 67 68 67 65 64 64 69 73 77 88 92 95 93 91 93 98 100 100 100 100 96 79 56 48 49 52 53 55 55 54 54 56 59 58 58 57 55 54 53 54 55 56 56 59 75 93 100

GFSWCAN_700_rhum_282.txt.gz
RH
5 19 22 27 33 34 34 36 39 41 30 18 16 19 16 21 39 86 97 100 100 100 96 87 98 100 99 92 100 95 68 48 66 98 98 90 99 95 96 96 92 78 72 84 93 97 99 93 100 100 100 100 97 97
12 18 25 34 36 35 35 40 43 33 21 18 15 6 6 11 42 100 82 93 93 87 99 99 92 91 100 100 99 94 54 54 75 99 100 100 99 94 92 83 86 84 80 82 79 94 100 100 100 100 100 100 100 97
14 15 32 38 38 36 39 45 45 25 17 9 6 6 8 12 16 32 44 62 84 83 100 98 99 100 100 100 98 80 72 76 91 95 98 99 98 95 100 97 89 95 97 93 82 89 100 100 100 100 100 100 99 100
10 23 34 40 41 42 46 45 25 16 7 6 7 11 14 16 18 19 29 49 75 89 100 100 100 100 100 99 98 79 71 76 84 100 99 100 100 99 100 99 100 99 98 98 100 100 100 100 100 100 100 100 100 98
12 26 34 42 46 49 49 27 16 7 7 9 12 16 18 18 20 34 46 79 98 100 100 98 100 100 100 99 97 78 67 82 99 100 100 100 100 100 100 100 100 100 100 100 100 100 100 100 100 100 99 99 100 98
23 29 40 47 51 53 37 16 8 8 11 16 18 19 17 23 44 44 82 100 100 100 100 100 100 100 100 100 99 67 75 88 99 100 100 100 100 100 100 100 100 100 100 100 100 100 100 100 100 97 98 97 98 100
22 32 47 54 56 48 19 9 8 11 17 21 22 20 30 37 54 71 87 93 100 100 100 100 100 100 100 98 97 85 95 100 100 100 100 100 100 100 100 100 100 100 100 100 100 100 100 99 96 96 99 99 97 97
22 46 57 60 58 26 12 9 13 18 21 18 17 98 98 60 71 82 100 100 100 100 100 100 100 100 100 100 100 92 96 97 99 100 100 100 100 100 99 100 100 100 100 100 100 100 100 100 100 97 95 97 99 98
38 59 62 62 33 14 10 13 17 18 12 12 29 63 60 80 86 86 92 94 96 100 100 100 100 100 100 100 100 99 99 100 100 100 100 100 100 98 100 100 100 100 100 100 100 100 100 100 99 100 98 95 98 98
64 68 70 38 16 10 14 17 16 11 11 16 28 57 76 77 83 83 88 97 92 93 97 100 100 100 100 100 100 100 100 100 100 100 100 98 100 100 100 100 100 100 100 100 100 100 100 100 100 100 100 97 97 94
73 76 54 18 11 13 16 16 12 12 16 22 45 74 91 97 98 96 86 79 92 91 88 92 100 100 100 100 100 100 100 100 99 100 100 99 100 100 100 100 100 100 100 100 100 100 100 100 100 99 98 97 96 94
78 61 20 12 13 16 16 12 12 14 18 28 46 68 88 70 70 57 60 67 79 82 90 86 87 100 100 100 100 100 100 100 100 100 99 99 100 100 100 100 100 100 100 100 100 100 100 99 100 100 100 100 98 97
69 22 13 13 16 17 13 12 13 15 20 35 43 33 52 32 29 41 57 63 71 78 86 94 97 100 100 100 100 100 100 100 100 100 99 100 100 100 100 100 100 100 100 100 100 100 100 100 100 100 99 99 100 100
37 17 13 17 18 14 13 14 14 15 19 32 22 24 36 62 82 99 95 84 86 91 99 100 98 100 100 100 100 100 100 100 97 95 100 100 100 100 100 100 100 100 100 100 100 100 100 99 100 100 100 100 99 100
20 15 19 20 16 14 14 14 14 15 18 19 29 50 81 87 90 97 98 97 97 100 100 99 98 99 100 98 99 100 98 96 100 100 100 100 100 100 100 100 100 100 100 100 100 100 100 100 99 98 100 100 100 100
17 16 20 18 15 16 16 18 21 15 15 36 48 58 68 72 71 80 87 79 84 97 95 96 97 92 87 92 91 96 95 100 100 100 100 100 100 100 100 100 100 100 100 100 99 99 99 100 100 100 99 99 99 99
14 22 20 16 17 18 18 21 14 15 48 64 72 66 64 59 57 55 70 67 60 69 87 86 84 87 84 83 94 97 100 100 100 100 100 99 99 98 99 99 96 94 92 91 90 89 89 89 88 87 86 84 81 79
22 21 17 20 22 19 16 14 20 51 69 77 72 75 70 69 71 64 58 54 69 58 56 72 80 84 89 98 100 100 100 100 99 98 100 100 99 97 96 96 97 95 95 94 92 90 89 87 85 83 81 79 78 77
22 18 18 20 21 20 18 34 36 73 88 83 88 82 73 73 72 72 69 65 61 58 60 81 90 100 100 100 100 100 100 100 100 100 99 100 100 100 100 100 97 98 97 97 98 97 96 94 94 94 93 91 88 90
20 19 18 20 24 19 30 52 53 79 90 93 88 82 82 86 88 84 78 70 62 59 76 97 100 100 100 100 100 100 100 100 100 100 100 99 97 98 98 100 100 100 100 100 98 96 96 98 96 92 92 92 88 90
21 19 20 21 20 20 38 55 68 76 89 87 85 84 89 84 76 68 66 69 65 86 100 100 100 100 100 100 100 100 100 100 100 100 99 100 100 100 100 100 96 95 96 96 98 98 95 94 96 97 97 97 93 92
22 25 23 20 22 38 54 62 71 79 87 86 83 82 78 73 72 74 74 75 92 100 100 100 100 100 100 100 100 100 100 100 100 100 100 100 100 100 100 100 100 100 97 92 96 98 100 99 99 98 99 100 99 98
26 25 22 23 35 54 64 68 72 75 83 83 80 82 84 84 86 87 93 100 100 100 100 100 99 100 100 100 100 100 100 100 100 100 100 100 100 100 100 99 100 100 100 100 100 100 100 100 99 97 100 100 97 97
23 19 25 33 43 53 60 63 62 68 72 72 78 85 90 94 91 99 100 100 100 100 100 100 100 100 100 100 100 100 100 100 100 100 100 100 100 99 98 98 100 100 100 100 100 100 100 100 100 100 100 100 100 99
24 27 34 40 48 55 58 61 61 65 68 71 75 81 87 88 93 99 100 100 100 100 100 100 100 100 100 100 100 100 100 100 100 100 100 100 100 100 100 100 97 96 99 100 100 100 100 100 100 100 100 99 98 96
24 33 40 46 50 52 54 56 58 60 66 72 78 82 84 92 94 100 100 100 100 98 100 100 100 100 100 97 98 100 100 100 100 100 99 96 96 90 89 94 99 100 100 100 100 100 100 100 100 100 100 100 100 100
38 45 43 42 43 45 52 57 62 69 76 80 79 83 93 97 100 100 100 100 99 98 98 100 100 100 100 100 100 100 100 98 96 93 93 92 91 94 98 98 96 96 96 95 98 100 100 100 100 100 100 100 100 100
46 54 46 48 48 49 52 57 65 74 79 86 89 92 100 100 100 100 100 100 100 100 100 100 100 100 100 100 100 100 99 94 97 100 100 100 100 94 90 87 84 87 89 89 87 91 94 95 97 100 100 100 100 100
44 47 48 50 49 50 58 63 70 72 75 76 79 91 100 100 100 100 100 100 100 100 100 100 98 87 73 70 65 59 59 61 61 61 59 58 60 62 65 67 66 65 64 66 68 66 65 64 66 75 93 100 100 100
45 47 48 51 48 58 63 64 62 62 66 74 85 97 100 100 100 100 100 100 100 97 92 88 72 57 52 52 51 52 52 52 53 54 55 60 61 62 61 61 58 54 51 49 48 49 51 56 60 62 63 75 99 100
48 51 51 51 56 60 59 61 67 76 83 89 92 100 100 100 100 100 100 100 100 99 93 66 51 49 50 52 53 54 55 55 56 58 61 65 65 64 63 59 53 48 46 43 42 42 43 44 45 47 52 55 62 89
54 58 58 56 60 64 65 68 69 74 80 83 86 91 91 88 91 100 100 100 89 68 48 44 44 44 45 46 48 49 50 52 54 56 55 53 55 58 58 58 53 47 46 45 42 42 45 46 44 43 43 44 48 51
53 56 58 59 59 59 59 60 62 67 80 84 88 86 82 73 72 64 50 43 40 38 38 39 40 42 43 44 44 44 43 43 44 46 47 49 51 52 52 51 50 46 46 44 42 43 45 45 43 43 42 41 40 41

GFSWCAN_700_rhum_288.txt.gz
RH
2 2 3 4 5 6 7 25 42 36 38 47 40 21 9 7 8 14 36 53 87 98 100 99 99 100 100 96 95 100 100 93 100 100 100 100 100 100 100 99 99 100 100 100 99 100 99 90 100 98 100 100 100 100
2 3 4 5 6 6 19 42 42 39 48 45 25 8 8 9 12 15 18 26 66 98 95 100 98 94 96 100 100 98 100 95 99 91 87 95 100 100 99 100 100 100 100 100 100 99 97 100 100 100 100 99 100 100
3 4 5 6 7 18 41 45 41 49 46 25 10 8 9 12 16 18 19 22 54 100 100 99 94 96 96 100 100 100 100 100 98 96 96 100 100 100 100 100 100 100 100 100 98 100 100 100 100 100 100 99 96 99
4 5 6 7 11 38 47 40 48 44 21 9 9 10 13 16 18 24 30 31 54 83 100 99 97 96 98 100 100 100 99 95 87 96 100 100 100 100 100 99 100 100 100 100 100 100 100 100 100 100 100 100 98 97
5 7 8 10 40 44 39 47 41 15 9 10 11 13 15 27 64 39 29 61 96 98 100 100 97 94 100 100 100 100 100 97 92 100 100 100 100 100 100 100 100 100 100 100 100 100 100 100 100 100 100 100 100 98
7 8 12 50 35 37 47 37 11 10 11 12 12 12 19 95 92 78 54 100 100 100 100 100 100 100 100 100 100 100 100 91 99 100 100 100 100 100 100 100 100 100 100 100 100 100 100 100 100 100 99 100 100 98
8 25 47 25 42 47 24 10 10 11 12 12 12 23 84 100 100 92 63 74 91 100 100 100 100 100 100 100 100 100 100 100 99 100 100 100 100 100 100 100 100 100 100 100 100 100 100 100 100 100 100 100 100 98
38 38 24 46 44 16 11 11 12 12 12 12 66 100 100 99 98 67 81 95 93 100 100 100 100 100 100 100 100 100 100 100 100 100 100 100 100 100 99 100 100 100 100 100 100 100 100 100 100 100 100 100 100 100
26 32 48 43 14 12 12 13 12 11 12 14 87 100 100 73 74 84 86 94 90 100 100 100 100 100 100 100 100 100 100 100 100 100 100 100 100 99 100 100 100 100 100 100 100 100 100 100 100 100 100 100 100 100
43 52 41 13 13 13 13 12 12 12 13 16 28 47 72 85 98 98 99 94 92 84 95 100 100 100 100 100 100 100 100 100 99 100 100 98 100 100 100 100 100 100 100 100 100 100 100 100 100 100 100 100 100 100
54 43 15 14 14 14 12 12 12 12 15 21 38 69 88 86 84 88 64 64 78 78 86 98 100 100 100 100 100 100 100 100 99 100 100 100 100 100 100 100 100 100 100 100 100 100 100 100 100 100 100 100 100 99
49 16 14 14 14 13 12 12 10 12 16 26 30 61 51 28 29 30 39 52 66 80 94 87 94 100 100 100 100 100 100 100 100 100 98 100 100 100 100 100 100 100 100 100 100 100 100 100 100 100 100 100 100 100
16 15 15 14 14 13 12 10 10 13 22 20 17 23 34 33 52 73 83 93 91 95 92 98 100 100 100 100 100 100 100 100 100 97 100 100 100 100 100 100 100 100 100 99 99 100 99 99 99 99 100 99 99 99
15 15 15 14 13 12 10 11 11 14 22 17 22 32 44 74 83 82 85 97 100 100 100 100 99 99 100 100 99 100 100 100 95 98 100 100 100 100 100 100 100 100 100 100 100 100 100 100 99 98 98 98 98 96
16 16 16 15 14 12 11 13 13 15 16 22 36 49 66 73 72 68 65 81 95 96 95 93 91 92 94 94 95 100 95 98 100 100 100 100 100 100 100 100 100 100 100 100 98 98 96 97 98 98 96 96 95 95
18 18 16 14 13 14 18 20 18 13 18 45 63 71 72 69 69 68 60 58 70 90 87 83 82 73 74 83 85 93 95 100 100 100 100 100 100 100 99 96 97 96 93 91 88 86 84 83 83 84 83 80 81 78
18 17 16 15 17 20 24 21 16 18 57 71 79 72 68 62 63 59 58 57 53 58 71 72 74 78 80 82 98 99 100 100 100 100 100 100 100 100 100 98 95 98 98 98 98 96 94 92 90 89 89 87 85 80
17 16 17 21 26 25 21 18 22 53 73 76 72 72 68 70 71 65 62 60 63 54 54 71 77 82 91 100 100 100 100 100 100 100 100 100 100 100 99 99 100 99 98 97 97 98 97 96 95 94 92 91 92 89
16 16 17 22 31 23 22 35 40 71 85 81 86 82 79 81 78 75 72 66 62 58 61 82 90 100 100 100 100 100 100 100 100 100 100 100 100 100 100 100 98 97 95 97 96 96 97 96 94 94 93 92 92 94
16 19 21 22 28 21 36 53 55 81 86 90 88 86 85 88 88 84 76 67 59 60 80 98 100 100 100 100 100 100 100 100 100 100 100 100 100 100 100 100 99 98 100 100 99 92 92 98 98 96 96 96 91 94
21 24 28 26 22 25 39 54 66 81 91 90 86 81 84 79 73 66 66 69 68 90 100 100 100 100 100 100 100 100 100 100 100 100 100 100 98 97 100 100 100 97 98 100 100 100 100 99 100 100 100 99 96 97
29 29 25 24 27 38 54 64 78 86 93 90 88 88 84 76 70 70 69 74 92 100 100 100 100 100 100 100 100 100 100 100 100 100 100 100 100 100 100 99 100 100 100 100 100 100 100 100 100 100 100 100 100 100
28 27 25 32 42 56 66 70 74 78 90 88 85 86 88 92 92 88 94 100 100 100 100 100 100 100 100 100 100 100 100 100 100 100 100 100 98 97 97 91 90 94 100 100 100 100 100 100 99 99 100 100 100 100
26 25 34 43 52 59 64 67 70 78 84 79 78 85 90 92 90 100 100 100 100 100 100 100 100 100 100 100 100 98 100 100 100 100 100 100 100 100 100 99 96 94 95 94 96 99 100 100 100 100 100 99 100 100
26 35 42 48 55 63 72 77 79 80 76 77 86 90 87 86 94 100 100 100 100 100 100 100 91 88 88 90 86 77 70 68 68 68 68 68 70 73 76 79 78 74 76 73 74 73 75 82 89 97 100 97 96 94
32 41 46 55 65 71 75 78 78 76 75 82 80 88 93 93 100 100 100 100 98 89 73 63 62 60 57 54 56 57 61 63 65 67 68 68 67 68 69 69 66 65 62 58 52 51 54 59 64 68 72 86 98 100
44 52 57 61 64 62 64 68 75 84 88 86 82 89 97 99 100 100 100 90 74 62 54 53 54 55 56 58 60 60 60 61 63 64 63 68 73 77 74 69 60 61 56 53 52 49 46 48 50 53 59 66 69 91
49 60 56 54 54 60 65 70 85 94 93 89 87 94 100 100 100 100 87 74 62 51 48 48 48 49 51 53 54 57 62 66 70 78 88 89 76 72 72 71 64 60 59 52 47 49 50 50 49 49 49 53 59 67
52 54 50 54 56 65 73 81 89 93 93 86 84 88 99 94 84 70 57 51 47 49 50 50 49 49 46 43 44 46 47 49 50 52 52 52 53 57 58 58 52 48 48 51 50 49 51 49 46 44 45 46 50 55
54 51 50 54 61 75 77 78 74 73 70 65 67 67 56 42 40 38 39 39 39 38 38 39 42 43 46 49 53 55 57 56 52 51 46 45 46 47 47 43 40 41 44 46 46 48 50 51 49 48 45 43 43 44
56 54 52 56 60 65 65 59 48 46 43 42 41 39 37 38 38 38 39 46 56 67 78 91 99 100 100 100 100 100 100 100 100 100 97 84 64 50 42 36 34 37 38 38 39 40 43 44 45 44 41 40 39 39
50 52 52 52 52 49 48 43 38 36 36 36 39 48 57 70 86 98 100 100 100 100 100 100 100 100 100 100 100 100 100 100 100 100 100 100 100 100 98 80 52 37 34 33 32 32 34 36 40 42 42 38 34 33
44 41 37 34 32 33 36 38 41 46 52 69 81 85 92 93 99 100 99 100 98 94 91 93 95 98 100 100 100 100 100 99 99 100 100 100 100 100 100 100 100 100 97 77 51 37 32 31 32 33 36 38 39 35